Powrót do katalogu

OPS 4682 DEB

AktywnyPO
NORAD 38450·DEBRIS·🇺🇸 United States

Wystrzelony Apr 3, 1965 z Vandenberg Space Force Base

Loading…

Następne Przeloty (najbliższe 24 godziny)

TLE

ŚwieżeSource: Space-Track

Epoka: Sep 14, 2026, 06:40 UTC

1 38450U 65027FF  26257.27822397 -.00000246  00000-0 -83438-3 0  9995
2 38450  90.2451   9.2990 0025368  16.1220 344.0704 13.00509775643695

Śledź OPS 4682 DEB w czasie rzeczywistym z AllMySat

Download on the App Store